Wind_Speed
5 6 7 7 7 8 8 8 8 8 8 8 9 9 9 9 9 10 9 9 9 9 9 9 9 9 9 9 9 9 9 9 8 8 8 9 8 8 8 8 8 9 9
5 5 6 6 7 7 8 8 7 8 8 8 8 8 8 9 9 10 9 9 9 9 9 9 9 9 9 9 9 8 8 8 8 8 8 8 8 9 8 9 9 9 9
6 6 6 6 6 6 7 8 7 8 8 7 7 8 8 8 9 9 8 9 9 9 9 9 8 9 9 9 8 8 8 7 8 8 8 8 8 8 8 9 9 9 8
6 6 6 6 6 6 7 8 8 7 7 7 7 8 7 7 7 8 8 8 8 8 8 8 8 8 8 8 8 7 7 7 7 8 7 7 7 7 8 8 8 8 8
6 6 6 7 6 6 7 8 8 7 7 7 7 8 7 6 6 8 8 8 8 8 7 7 7 7 7 7 6 6 6 6 7 7 7 7 7 7 7 7 7 7 7
7 7 7 6 6 6 6 6 6 7 7 7 8 8 8 7 6 7 8 7 7 7 7 7 7 7 6 6 6 6 6 6 6 6 6 6 6 6 6 6 6 6 6
6 6 6 6 6 6 6 6 6 7 8 7 8 7 8 7 7 7 7 6 6 6 6 6 6 6 5 5 6 6 6 6 5 5 5 5 5 5 5 5 5 5 5
6 6 5 6 6 6 6 6 6 7 8 7 7 8 8 7 6 6 6 6 6 5 5 5 4 4 4 5 5 5 5 5 5 5 5 4 4 4 4 4 4 4 3
6 6 6 6 6 6 6 7 7 8 7 7 7 7 7 6 6 6 5 5 5 4 4 4 4 3 3 4 4 4 4 3 3 3 3 3 3 3 3 3 2 2 2
7 6 5 6 7 6 7 6 7 7 7 8 7 7 7 6 5 5 4 4 4 3 2 2 2 2 2 3 3 3 2 2 2 2 1 1 2 2 2 2 1 1 1
7 7 7 7 7 7 7 6 6 7 7 8 7 7 6 6 5 5 4 3 3 2 2 1 1 1 1 2 2 1 1 1 1 2 2 1 1 1 1 1 1 1 1
8 8 7 7 7 7 7 7 6 6 7 7 7 7 6 6 5 4 4 3 2 2 1 1 1 1 1 1 1 1 1 1 1 1 2 2 2 1 1 1 1 2 2
9 7 7 7 6 6 6 7 7 6 6 6 6 7 6 5 5 4 3 2 3 2 1 1 0 0 1 1 1 1 2 2 1 1 2 2 2 2 2 1 1 2 3
9 9 7 6 6 6 6 7 6 6 5 5 6 6 6 5 4 3 3 3 2 2 1 1 0 0 0 0 1 1 1 2 2 2 3 3 3 3 3 3 3 3 3
10 9 9 7 6 6 6 7 7 6 6 6 6 6 5 4 3 3 3 2 2 2 2 1 0 1 1 1 1 1 2 3 3 3 3 4 5 4 4 4 4 4 4
9 8 8 8 7 6 6 6 7 6 5 5 5 5 4 4 3 2 2 2 2 2 2 1 1 1 1 2 2 3 4 4 5 5 5 4 4 5 5 5 5 5 5
9 8 7 7 6 6 6 6 6 6 5 5 5 5 4 4 3 3 3 3 2 2 1 1 1 1 2 3 3 4 5 6 6 5 5 5 5 5 6 6 5 6 6
8 7 7 7 6 6 5 5 5 5 5 5 5 5 4 4 3 3 3 3 2 1 1 1 2 2 3 3 4 4 5 6 6 5 6 6 6 6 6 6 7 7 7
8 8 7 7 6 5 5 5 5 6 5 5 5 5 5 4 3 3 2 2 1 1 1 2 2 3 3 3 4 5 4 4 5 6 5 5 6 6 6 7 7 8 8
7 7 7 6 6 5 5 5 4 5 5 5 5 5 4 4 4 3 2 1 1 2 2 3 2 3 3 3 3 4 3 3 4 4 5 5 6 6 6 7 7 7 8
6 5 5 5 5 4 4 4 4 4 4 4 3 3 3 3 2 2 2 2 2 2 2 2 2 3 3 3 4 4 3 3 3 3 4 5 6 6 7 7 7 7 8
4 4 4 4 4 4 3 3 3 3 3 3 2 2 2 1 1 1 2 2 2 2 2 3 3 3 3 4 4 4 4 4 4 4 4 5 5 6 7 7 7 7 7
3 4 3 3 2 3 2 2 2 2 2 2 1 1 1 1 1 1 2 3 3 3 3 3 4 4 4 5 5 5 5 5 5 5 5 6 6 7 7 7 7 8 8
3 3 2 1 1 1 1 1 1 1 1 1 1 2 2 3 3 3 4 4 4 4 4 5 5 5 5 5 5 5 6 7 7 7 7 7 7 8 8 8 8 9 10
3 3 2 2 1 1 1 1 1 2 2 2 2 3 3 4 4 4 5 6 6 6 6 6 6 6 6 6 7 7 7 7 8 9 9 9 9 9 10 10 10 11 11
5 4 4 4 3 3 3 3 3 4 4 4 4 4 4 5 5 6 7 7 8 8 8 8 8 8 8 8 8 8 8 9 9 10 10 10 10 11 12 12 12 12 12
Wind_Direction
120 120 118 111 114 118 122 122 127 127 129 128 127 127 127 123 120 121 118 116 111 110 111 112 115 118 119 117 116 113 111 111 110 110 107 103 102 104 106 110 105 100 97
129 130 127 117 121 123 123 124 126 126 130 135 134 133 132 127 124 123 117 115 114 113 112 112 114 117 118 118 114 110 110 112 114 113 109 106 104 107 109 105 103 103 100
121 124 127 129 129 126 127 127 129 131 136 140 139 138 135 133 129 125 117 117 118 116 114 114 113 113 117 118 116 113 111 115 119 114 110 108 107 110 111 104 103 103 101
111 116 123 127 125 127 130 134 139 140 140 144 142 142 141 139 134 129 122 123 122 120 117 114 111 109 110 115 116 115 111 110 114 111 109 109 105 106 109 103 103 102 100
102 113 116 121 124 127 131 137 141 144 146 150 150 148 148 143 143 137 128 126 122 120 120 113 112 110 110 112 115 117 114 111 111 105 102 105 104 106 108 108 106 103 99
92 107 121 126 127 125 133 138 141 152 150 152 151 148 146 144 144 138 132 128 126 122 121 119 115 111 109 114 117 118 117 116 116 105 102 105 108 110 114 115 112 108 102
90 98 117 126 130 132 135 137 140 153 148 145 145 142 144 143 141 139 135 135 130 122 120 118 116 113 114 117 117 116 115 116 118 113 112 114 115 115 119 124 120 118 111
98 103 106 110 117 119 130 134 134 149 151 154 142 140 144 142 141 141 140 139 133 124 121 121 118 110 111 117 117 117 119 122 124 120 120 121 121 122 123 130 132 131 124
98 105 106 113 114 121 129 135 144 145 147 151 152 150 151 146 148 147 148 145 140 135 126 126 119 107 107 116 121 119 122 127 138 138 127 124 130 134 133 131 148 145 134
88 95 100 115 119 121 129 134 140 140 148 149 152 154 156 154 151 145 147 147 149 147 147 139 130 118 120 128 133 135 138 142 156 167 153 133 131 151 155 152 150 180 187
88 88 95 114 124 125 125 129 131 132 141 143 146 148 147 146 148 153 152 151 156 157 156 164 167 168 155 164 171 173 184 177 198 207 208 193 170 183 182 194 230 257 252
82 83 89 111 120 124 126 129 134 137 148 146 144 143 139 140 146 154 160 158 161 165 165 181 188 184 187 189 192 202 209 193 200 208 226 235 240 245 232 243 269 277 280
77 84 87 96 104 115 120 126 133 134 143 150 149 144 143 142 146 148 156 159 168 173 181 178 180 75 153 203 215 227 227 213 200 206 241 242 239 246 255 283 293 295 297
75 80 84 85 100 108 116 121 128 129 130 139 145 145 143 142 140 136 140 137 141 150 170 181 231 307 238 240 238 234 239 232 237 249 243 243 242 247 252 265 291 294 300
69 69 71 75 93 104 112 122 126 126 123 130 138 141 141 139 136 139 136 129 125 121 125 141 227 264 254 260 267 257 248 242 250 257 251 245 248 254 260 266 280 282 291
68 69 69 72 79 95 110 121 123 128 133 127 131 139 141 142 137 140 140 136 146 141 136 127 251 303 277 278 279 268 259 255 257 258 256 251 256 263 267 272 277 284 287
64 65 66 70 76 88 103 115 127 129 135 138 139 144 143 141 150 154 147 139 141 159 192 241 277 295 308 297 284 276 273 267 266 263 257 261 268 269 273 275 279 286 289
58 62 66 73 80 90 96 113 124 123 129 135 141 147 144 144 147 148 143 138 128 138 217 272 270 276 294 294 292 295 287 275 268 261 258 262 272 277 279 280 281 284 287
52 59 65 72 80 88 99 112 119 119 119 122 122 128 134 133 136 137 123 107 90 24 319 307 293 294 299 306 307 307 298 283 270 258 261 258 273 279 281 282 282 284 287
48 55 61 66 74 88 97 103 105 116 124 126 125 120 117 108 99 90 89 84 29 1 333 320 307 297 297 307 317 318 322 307 284 262 263 265 270 276 281 286 286 286 289
34 42 55 63 69 87 106 111 114 119 128 132 129 124 112 102 90 66 51 28 360 355 345 332 315 299 299 305 310 310 309 317 316 295 290 289 283 280 281 287 292 293 293
30 38 56 69 72 82 94 104 114 132 142 140 132 127 131 129 89 31 16 352 334 339 341 337 328 311 297 296 294 294 299 306 306 299 297 298 297 297 288 284 285 289 295
18 24 38 62 84 93 95 100 100 114 134 147 158 159 183 251 289 308 322 333 330 313 308 304 304 308 312 302 293 289 290 295 303 293 288 289 290 293 289 284 284 288 291
2 5 6 27 71 103 111 114 123 141 173 197 226 245 261 276 285 292 304 311 316 314 300 294 291 294 298 302 297 293 289 292 291 287 285 285 285 287 285 288 290 290 290
325 326 322 308 290 263 232 243 237 245 252 252 258 259 265 279 284 289 297 301 302 305 302 293 289 290 294 296 296 294 291 289 288 286 284 286 286 284 282 283 284 285 287
290 289 293 288 277 271 265 262 257 257 260 255 263 265 267 279 286 290 292 295 298 298 298 293 287 286 285 285 287 288 291 289 289 290 287 287 288 285 283 282 281 281 284
Height
5891 5891 5891 5892 5892 5893 5893 5894 5895 5895 5896 5897 5898 5898 5899 5899 5900 5901 5901 5902 5902 5902 5902 5902 5902 5903 5903 5903 5903 5903 5903 5903 5903 5903 5903 5903 5903 5903 5903 5903 5903 5902 5902
5891 5891 5892 5892 5893 5894 5894 5895 5896 5897 5897 5898 5899 5900 5901 5901 5902 5902 5903 5903 5903 5903 5904 5904 5904 5904 5904 5904 5904 5904 5904 5904 5904 5905 5905 5905 5904 5904 5904 5904 5904 5904 5904
5891 5892 5892 5893 5894 5895 5895 5896 5897 5898 5899 5899 5900 5901 5902 5903 5903 5903 5904 5904 5904 5905 5905 5905 5905 5905 5905 5905 5905 5905 5905 5905 5906 5906 5906 5906 5906 5906 5905 5905 5905 5905 5905
5892 5892 5893 5894 5895 5896 5896 5897 5898 5899 5899 5900 5901 5902 5903 5904 5904 5905 5905 5905 5906 5906 5906 5906 5906 5906 5906 5906 5906 5906 5906 5907 5907 5907 5907 5907 5907 5907 5906 5906 5906 5906 5906
5893 5893 5894 5895 5896 5897 5897 5898 5899 5900 5900 5901 5902 5903 5904 5905 5905 5906 5906 5906 5907 5907 5907 5907 5907 5907 5907 5908 5908 5908 5908 5908 5908 5908 5908 5908 5908 5908 5907 5907 5907 5908 5907
5894 5894 5895 5896 5897 5897 5898 5899 5899 5900 5901 5902 5903 5904 5905 5906 5906 5907 5907 5908 5908 5908 5908 5908 5908 5909 5909 5909 5909 5909 5909 5909 5909 5909 5909 5909 5909 5909 5909 5908 5908 5908 5908
5895 5895 5896 5896 5897 5898 5898 5899 5901 5901 5902 5903 5904 5905 5906 5907 5907 5908 5908 5909 5909 5909 5909 5909 5909 5910 5910 5910 5909 5909 5909 5909 5910 5909 5909 5910 5910 5909 5909 5909 5909 5909 5909
5896 5897 5897 5898 5898 5899 5899 5900 5901 5902 5903 5904 5905 5906 5907 5907 5908 5909 5909 5910 5910 5910 5910 5910 5910 5910 5910 5910 5910 5910 5910 5910 5910 5910 5910 5910 5910 5910 5910 5910 5910 5910 5909
5897 5898 5898 5899 5899 5900 5900 5901 5902 5903 5904 5905 5906 5907 5908 5908 5909 5910 5910 5910 5911 5911 5911 5911 5911 5911 5911 5911 5911 5911 5911 5910 5911 5911 5911 5911 5910 5910 5910 5910 5910 5910 5910
5899 5899 5899 5900 5900 5901 5902 5902 5903 5903 5904 5905 5907 5907 5908 5909 5910 5910 5911 5911 5911 5911 5912 5912 5912 5912 5911 5911 5911 5911 5911 5911 5911 5911 5911 5911 5911 5910 5910 5910 5910 5910 5910
5900 5900 5900 5900 5901 5902 5902 5903 5904 5904 5905 5906 5907 5908 5909 5910 5910 5911 5911 5911 5911 5912 5912 5912 5911 5911 5911 5911 5911 5911 5911 5911 5911 5911 5911 5911 5911 5911 5910 5910 5910 5910 5909
5901 5901 5901 5901 5902 5902 5903 5904 5904 5905 5906 5907 5908 5909 5909 5910 5911 5911 5911 5911 5911 5912 5911 5911 5911 5911 5911 5911 5911 5911 5910 5911 5911 5910 5910 5910 5910 5910 5910 5910 5910 5909 5909
5903 5903 5903 5903 5903 5903 5904 5904 5905 5906 5907 5908 5908 5909 5910 5910 5911 5911 5911 5912 5912 5912 5912 5911 5911 5911 5911 5911 5911 5910 5910 5910 5910 5910 5910 5910 5910 5910 5909 5909 5909 5909 5908
5904 5904 5904 5904 5904 5904 5905 5905 5906 5907 5908 5909 5909 5910 5910 5911 5911 5911 5912 5912 5912 5912 5912 5911 5911 5911 5911 5910 5910 5910 5910 5910 5910 5910 5910 5910 5909 5909 5909 5909 5908 5908 5908
5906 5906 5905 5905 5905 5905 5906 5906 5907 5908 5909 5909 5910 5910 5911 5911 5912 5912 5912 5912 5912 5912 5912 5911 5911 5911 5911 5910 5910 5909 5909 5909 5909 5909 5909 5909 5909 5908 5908 5908 5908 5907 5907
5907 5907 5906 5906 5906 5906 5906 5907 5907 5908 5909 5910 5910 5911 5911 5912 5912 5912 5912 5912 5912 5912 5911 5911 5911 5911 5910 5910 5909 5909 5908 5908 5908 5908 5908 5908 5908 5907 5907 5907 5907 5906 5906
5908 5907 5907 5906 5906 5906 5907 5907 5908 5909 5909 5910 5911 5911 5912 5912 5912 5912 5912 5912 5912 5911 5911 5911 5911 5910 5910 5909 5909 5908 5907 5907 5907 5907 5907 5907 5906 5906 5906 5905 5905 5904 5904
5908 5908 5908 5907 5907 5907 5907 5908 5909 5909 5910 5910 5911 5911 5912 5912 5912 5912 5912 5912 5912 5911 5911 5911 5910 5910 5909 5909 5908 5907 5906 5906 5906 5906 5906 5906 5905 5905 5904 5904 5903 5903 5902
5909 5908 5908 5908 5908 5908 5908 5909 5909 5910 5910 5911 5911 5912 5912 5912 5912 5912 5912 5912 5912 5911 5911 5910 5909 5909 5908 5908 5907 5906 5905 5905 5905 5905 5904 5904 5904 5903 5903 5902 5902 5901 5900
5909 5909 5908 5908 5908 5908 5909 5909 5910 5910 5910 5911 5911 5912 5912 5912 5912 5912 5912 5912 5911 5911 5910 5909 5908 5908 5908 5907 5906 5905 5905 5904 5904 5903 5903 5903 5902 5901 5901 5900 5900 5899 5899
5910 5909 5909 5908 5908 5908 5909 5909 5910 5910 5911 5911 5912 5912 5912 5912 5912 5912 5912 5911 5911 5910 5909 5908 5908 5907 5907 5906 5905 5904 5904 5903 5903 5902 5902 5901 5900 5900 5899 5899 5898 5897 5897
5910 5909 5909 5909 5909 5909 5909 5909 5910 5910 5911 5911 5911 5912 5912 5912 5912 5911 5911 5910 5910 5909 5908 5907 5907 5906 5905 5904 5904 5903 5903 5903 5901 5901 5900 5900 5899 5898 5897 5897 5896 5896 5895
5909 5909 5909 5909 5909 5909 5909 5909 5909 5910 5910 5911 5911 5911 5911 5911 5911 5911 5910 5909 5909 5908 5907 5906 5906 5905 5904 5903 5902 5902 5901 5901 5900 5900 5899 5898 5897 5897 5896 5895 5894 5894 5893
5909 5909 5909 5909 5909 5908 5909 5909 5909 5909 5910 5910 5910 5910 5910 5910 5910 5909 5909 5908 5907 5906 5906 5905 5904 5903 5903 5902 5901 5900 5900 5899 5899 5898 5898 5897 5896 5895 5894 5893 5892 5891 5891
5908 5908 5908 5908 5908 5908 5908 5908 5909 5909 5908 5908 5908 5908 5908 5908 5908 5908 5907 5906 5906 5905 5904 5903 5902 5901 5901 5900 5899 5899 5898 5897 5897 5896 5895 5894 5893 5893 5892 5891 5890 5889 5888
5907 5907 5907 5907 5907 5907 5907 5907 5907 5907 5907 5907 5907 5907 5907 5906 5906 5906 5905 5905 5904 5903 5902 5901 5900 5899 5899 5898 5897 5896 5896 5895 5894 5894 5892 5892 5891 5890 5889 5888 5887 5886 5885